ECMWFNIL_prec_precacc_057.txt.gz
Total_Precipitation_Accumulation
0.00 0.00 0.00 0.00 0.00 0.00 0.00 0.00 0.00 0.00 0.00 0.00 0.00 0.00 0.00 0.00 0.00 0.00 0.00 0.00 0.00 0.00 0.00 0.00 0.00 0.00 0.00 0.01 0.01 0.03 0.04 0.01 0.04 0.06 0.08 0.07 0.08 0.21 0.15 0.25 0.39 0.38
0.00 0.00 0.01 0.00 0.00 0.00 0.00 0.00 0.00 0.00 0.00 0.00 0.00 0.00 0.00 0.00 0.00 0.00 0.00 0.00 0.00 0.00 0.00 0.00 0.00 0.00 0.00 0.01 0.01 0.01 0.01 0.07 0.06 0.02 0.06 0.09 0.13 0.11 0.18 0.21 0.22 0.29
0.00 0.00 0.00 0.00 0.00 0.00 0.00 0.00 0.00 0.00 0.00 0.00 0.00 0.00 0.00 0.00 0.01 0.01 0.01 0.01 0.01 0.01 0.01 0.00 0.00 0.00 0.00 0.00 0.01 0.01 0.01 0.01 0.05 0.05 0.09 0.06 0.16 0.11 0.11 0.15 0.15 0.13
0.00 0.01 0.00 0.00 0.00 0.00 0.00 0.00 0.00 0.00 0.00 0.00 0.00 0.00 0.00 0.00 0.00 0.00 0.00 0.01 0.01 0.01 0.00 0.01 0.00 0.00 0.00 0.00 0.00 0.01 0.02 0.01 0.01 0.03 0.10 0.09 0.04 0.06 0.10 0.09 0.11 0.15
0.00 0.00 0.04 0.00 0.00 0.00 0.00 0.00 0.00 0.00 0.00 0.00 0.00 0.00 0.01 0.00 0.00 0.01 0.01 0.01 0.01 0.01 0.00 0.00 0.00 0.00 0.00 0.00 0.01 0.01 0.01 0.01 0.01 0.01 0.02 0.08 0.14 0.06 0.04 0.10 0.13 0.10
0.01 0.01 0.02 0.01 0.01 0.00 0.00 0.00 0.00 0.00 0.00 0.00 0.00 0.00 0.00 0.00 0.01 0.01 0.00 0.01 0.00 0.00 0.01 0.01 0.00 0.00 0.00 0.00 0.00 0.01 0.01 0.01 0.02 0.01 0.01 0.02 0.09 0.16 0.12 0.06 0.11 0.09
0.01 0.03 0.03 0.01 0.01 0.00 0.00 0.01 0.00 0.00 0.01 0.00 0.00 0.00 0.00 0.00 0.00 0.00 0.00 0.00 0.00 0.00 0.00 0.00 0.00 0.00 0.00 0.00 0.01 0.01 0.01 0.01 0.01 0.01 0.01 0.01 0.01 0.07 0.17 0.11 0.08 0.05
0.03 0.03 0.04 0.15 0.09 0.00 0.01 0.00 0.00 0.00 0.00 0.00 0.00 0.00 0.00 0.00 0.00 0.00 0.00 0.00 0.00 0.00 0.00 0.00 0.00 0.00 0.00 0.00 0.00 0.01 0.01 0.01 0.01 0.01 0.00 0.01 0.01 0.02 0.03 0.13 0.11 0.08
0.35 0.40 0.10 0.10 0.09 0.01 0.01 0.01 0.02 0.01 0.02 0.02 0.01 0.01 0.00 0.00 0.00 0.00 0.00 0.00 0.00 0.00 0.00 0.00 0.01 0.01 0.01 0.01 0.01 0.01 0.01 0.01 0.00 0.00 0.01 0.01 0.01 0.01 0.01 0.04 0.12 0.12
0.15 0.12 0.21 0.33 0.28 0.24 0.13 0.10 0.07 0.12 0.14 0.05 0.01 0.01 0.01 0.04 0.01 0.02 0.00 0.00 0.00 0.00 0.01 0.00 0.00 0.00 0.01 0.01 0.01 0.01 0.01 0.01 0.01 0.01 0.00 0.01 0.00 0.01 0.02 0.01 0.02 0.06
0.38 0.28 0.16 0.17 0.26 0.37 0.40 0.28 0.23 0.28 0.40 0.34 0.31 0.25 0.15 0.13 0.10 0.04 0.02 0.02 0.01 0.01 0.01 0.01 0.01 0.01 0.01 0.01 0.01 0.02 0.02 0.03 0.01 0.05 0.03 0.01 0.02 0.02 0.02 0.03 0.02 0.03
0.17 0.17 0.31 0.39 0.30 0.26 0.17 0.09 0.12 0.19 0.24 0.33 0.36 0.40 0.46 0.35 0.25 0.21 0.07 0.05 0.04 0.09 0.03 0.05 0.07 0.07 0.02 0.04 0.06 0.06 0.05 0.06 0.09 0.03 0.04 0.07 0.16 0.06 0.09 0.11 0.09 0.03
0.27 0.47 0.38 0.18 0.11 0.11 0.06 0.12 0.09 0.08 0.08 0.45 0.65 0.60 0.46 0.45 0.47 0.16 0.17 0.29 0.58 0.38 0.13 0.13 0.12 0.11 0.19 0.37 0.10 0.09 0.04 0.14 0.16 0.14 0.13 0.26 0.16 0.10 0.10 0.10 0.09 0.15
0.45 0.60 0.26 0.44 0.31 0.40 0.24 0.21 0.35 0.57 0.73 0.94 0.84 0.49 0.49 0.46 0.15 0.16 0.57 0.65 0.62 0.21 0.11 0.07 0.17 0.10 0.15 0.31 0.21 0.20 0.16 0.19 0.28 0.40 0.45 0.06 0.17 0.15 0.12 0.05 0.14 0.05
0.24 0.46 0.55 0.26 0.45 0.42 0.26 0.45 0.85 0.64 0.46 0.48 0.40 0.33 0.21 0.51 0.58 0.73 0.66 0.24 0.15 0.15 0.14 0.21 0.20 0.50 0.64 0.25 0.46 0.15 0.07 0.33 0.21 0.17 0.22 0.19 0.21 0.17 0.06 0.04 0.03 0.03
0.42 0.37 0.61 0.68 0.27 0.40 0.27 0.51 0.41 0.60 0.63 0.38 0.45 0.31 0.15 0.18 0.60 1.02 0.70 0.63 0.17 0.22 0.26 0.23 0.36 0.47 0.05 0.03 0.03 0.06 0.41 0.49 0.38 0.22 0.22 0.22 0.21 0.24 0.11 0.03 0.01 0.04
0.59 0.54 0.30 0.35 0.14 0.44 0.31 0.53 0.62 0.37 0.34 0.29 0.27 0.18 0.49 0.43 0.46 0.58 0.82 0.81 0.44 0.31 0.66 0.32 0.40 0.21 0.36 0.28 0.07 0.02 0.06 0.34 0.27 0.29 0.22 0.18 0.10 0.07 0.12 0.17 0.12 0.05
0.41 0.44 0.29 0.34 0.32 0.32 0.37 0.25 0.24 0.30 0.22 0.26 0.19 0.31 0.17 0.18 0.27 0.26 0.35 0.55 0.66 0.49 0.43 0.70 0.16 0.03 0.01 0.09 0.22 0.03 0.15 0.29 0.18 0.17 0.09 0.06 0.03 0.01 0.02 0.04 0.05 0.14
0.42 0.33 0.31 0.32 0.20 0.21 0.42 0.82 0.70 0.35 0.32 0.19 0.12 0.13 0.12 0.17 0.11 0.10 0.20 0.19 0.21 0.21 0.36 0.16 0.01 0.00 0.00 0.00 0.01 0.02 0.03 0.04 0.08 0.19 0.20 0.31 0.04 0.06 0.01 0.05 0.02 0.02
0.12 0.21 0.18 0.19 0.32 0.32 0.32 0.26 0.16 0.18 0.14 0.12 0.09 0.10 0.09 0.09 0.16 0.10 0.35 0.35 0.41 0.56 0.12 0.04 0.01 0.01 0.00 0.00 0.00 0.01 0.02 0.03 0.05 0.04 0.04 0.05 0.05 0.13 0.04 0.02 0.01 0.00
0.09 0.05 0.18 0.35 0.48 0.51 0.45 0.19 0.11 0.11 0.13 0.11 0.10 0.17 0.10 0.16 0.11 0.05 0.07 0.07 0.05 0.11 0.20 0.03 0.01 0.00 0.00 0.00 0.00 0.01 0.01 0.01 0.05 0.10 0.07 0.08 0.04 0.03 0.15 0.02 0.04 0.02
0.32 0.24 0.10 0.26 0.23 0.14 0.22 0.23 0.15 0.06 0.22 0.15 0.28 0.13 0.15 0.21 0.25 0.15 0.15 0.17 0.10 0.12 0.08 0.08 0.05 0.02 0.01 0.00 0.00 0.00 0.01 0.02 0.03 0.06 0.06 0.05 0.05 0.18 0.03 0.05 0.02 0.05
0.08 0.25 0.27 0.11 0.08 0.04 0.04 0.02 0.02 0.02 0.02 0.02 0.02 0.01 0.02 0.01 0.03 0.03 0.03 0.04 0.02 0.01 0.03 0.02 0.02 0.01 0.02 0.00 0.00 0.00 0.01 0.02 0.04 0.07 0.06 0.06 0.02 0.02 0.03 0.02 0.04 0.01
0.22 0.11 0.23 0.12 0.11 0.06 0.03 0.04 0.02 0.05 0.04 0.02 0.02 0.02 0.03 0.04 0.05 0.03 0.02 0.02 0.03 0.03 0.02 0.02 0.02 0.03 0.02 0.01 0.00 0.00 0.01 0.04 0.07 0.07 0.07 0.07 0.05 0.03 0.02 0.02 0.03 0.01
0.06 0.17 0.19 0.43 0.37 0.21 0.09 0.08 0.04 0.07 0.06 0.03 0.04 0.05 0.06 0.07 0.07 0.10 0.02 0.06 0.02 0.02 0.02 0.04 0.04 0.03 0.02 0.01 0.01 0.00 0.06 0.08 0.06 0.09 0.10 0.06 0.05 0.05 0.08 0.09 0.03 0.05
0.16 0.14 0.20 0.13 0.22 0.08 0.22 0.39 0.44 0.26 0.21 0.19 0.12 0.12 0.09 0.06 0.05 0.03 0.02 0.01 0.01 0.02 0.03 0.04 0.04 0.04 0.03 0.02 0.01 0.02 0.07 0.06 0.04 0.10 0.09 0.07 0.07 0.05 0.08 0.09 0.07 0.07

ECMWFNIL_prec_precacc_060.txt.gz
Total_Precipitation_Accumulation
0.00 0.00 0.00 0.00 0.00 0.00 0.00 0.00 0.00 0.00 0.00 0.00 0.00 0.00 0.00 0.00 0.00 0.00 0.00 0.00 0.00 0.00 0.00 0.00 0.00 0.00 0.00 0.01 0.01 0.03 0.04 0.01 0.04 0.06 0.08 0.07 0.08 0.21 0.15 0.25 0.39 0.38
0.00 0.00 0.01 0.00 0.00 0.00 0.00 0.00 0.00 0.00 0.00 0.00 0.00 0.00 0.00 0.00 0.00 0.00 0.00 0.00 0.00 0.00 0.00 0.00 0.00 0.00 0.00 0.01 0.01 0.01 0.01 0.07 0.06 0.02 0.06 0.09 0.13 0.11 0.18 0.21 0.22 0.29
0.00 0.00 0.00 0.00 0.00 0.00 0.00 0.00 0.00 0.00 0.00 0.00 0.00 0.00 0.00 0.00 0.01 0.01 0.01 0.01 0.01 0.01 0.01 0.00 0.00 0.00 0.00 0.00 0.01 0.01 0.01 0.01 0.05 0.05 0.09 0.06 0.16 0.11 0.11 0.15 0.15 0.13
0.00 0.01 0.00 0.00 0.00 0.00 0.00 0.00 0.00 0.00 0.00 0.00 0.00 0.00 0.00 0.00 0.00 0.00 0.00 0.01 0.01 0.01 0.00 0.01 0.00 0.00 0.00 0.00 0.00 0.01 0.02 0.01 0.01 0.03 0.10 0.09 0.04 0.06 0.10 0.09 0.11 0.15
0.04 0.00 0.04 0.00 0.00 0.00 0.00 0.00 0.00 0.00 0.00 0.00 0.00 0.00 0.01 0.00 0.00 0.01 0.01 0.01 0.01 0.01 0.00 0.00 0.00 0.00 0.00 0.00 0.01 0.01 0.01 0.01 0.01 0.01 0.02 0.08 0.14 0.06 0.04 0.10 0.13 0.10
0.18 0.27 0.02 0.01 0.01 0.00 0.00 0.00 0.00 0.00 0.00 0.00 0.00 0.00 0.00 0.00 0.01 0.01 0.00 0.01 0.00 0.00 0.01 0.01 0.00 0.00 0.00 0.00 0.00 0.01 0.01 0.01 0.02 0.01 0.01 0.02 0.09 0.16 0.12 0.06 0.11 0.09
0.08 0.10 0.07 0.01 0.01 0.00 0.00 0.01 0.00 0.00 0.01 0.00 0.00 0.00 0.00 0.00 0.00 0.00 0.00 0.00 0.00 0.00 0.00 0.00 0.00 0.00 0.00 0.00 0.01 0.01 0.01 0.01 0.01 0.01 0.01 0.01 0.01 0.07 0.17 0.11 0.08 0.05
0.24 0.23 0.16 0.15 0.09 0.00 0.01 0.00 0.00 0.00 0.00 0.00 0.00 0.00 0.00 0.00 0.00 0.00 0.00 0.00 0.00 0.00 0.00 0.00 0.00 0.00 0.00 0.00 0.00 0.01 0.01 0.01 0.01 0.01 0.00 0.01 0.01 0.02 0.03 0.13 0.11 0.08
0.48 0.57 0.22 0.14 0.09 0.01 0.01 0.01 0.02 0.01 0.02 0.02 0.01 0.01 0.00 0.00 0.00 0.00 0.00 0.00 0.00 0.00 0.00 0.00 0.01 0.01 0.01 0.01 0.01 0.01 0.01 0.01 0.00 0.00 0.01 0.01 0.01 0.01 0.01 0.04 0.12 0.12
0.64 0.36 0.37 0.44 0.32 0.28 0.13 0.10 0.07 0.12 0.14 0.05 0.01 0.01 0.01 0.04 0.01 0.02 0.00 0.00 0.00 0.00 0.01 0.00 0.00 0.00 0.01 0.01 0.01 0.01 0.01 0.01 0.01 0.01 0.00 0.01 0.01 0.01 0.02 0.01 0.02 0.06
0.49 0.52 0.44 0.31 0.34 0.43 0.42 0.28 0.23 0.28 0.40 0.34 0.31 0.25 0.15 0.13 0.10 0.04 0.02 0.02 0.01 0.01 0.01 0.01 0.01 0.01 0.02 0.01 0.02 0.02 0.03 0.03 0.01 0.06 0.04 0.01 0.04 0.02 0.02 0.03 0.02 0.03
0.27 0.45 0.87 0.85 0.42 0.29 0.18 0.09 0.12 0.19 0.24 0.33 0.36 0.40 0.46 0.35 0.25 0.21 0.07 0.05 0.04 0.09 0.03 0.05 0.07 0.07 0.02 0.05 0.08 0.06 0.06 0.08 0.10 0.05 0.07 0.13 0.22 0.09 0.09 0.11 0.09 0.03
0.29 0.51 0.47 0.26 0.16 0.17 0.06 0.12 0.09 0.08 0.08 0.45 0.65 0.60 0.46 0.45 0.47 0.16 0.17 0.29 0.58 0.38 0.13 0.14 0.14 0.13 0.19 0.38 0.13 0.11 0.06 0.20 0.20 0.16 0.25 0.30 0.36 0.19 0.23 0.25 0.24 0.27
0.49 0.75 0.49 0.71 0.38 0.59 0.42 0.26 0.36 0.57 0.74 0.94 0.84 0.49 0.49 0.46 0.15 0.16 0.57 0.65 0.62 0.21 0.20 0.09 0.26 0.15 0.15 0.34 0.24 0.21 0.22 0.31 0.51 0.67 0.86 0.29 0.71 0.43 0.37 0.32 0.39 0.24
0.24 0.47 0.57 0.30 0.75 0.59 0.41 0.84 1.11 0.73 0.47 0.48 0.40 0.33 0.21 0.51 0.58 0.73 0.67 0.25 0.16 0.16 0.15 0.29 0.26 0.81 0.95 0.34 0.47 0.18 0.11 0.69 0.43 0.27 0.29 0.26 0.33 0.25 0.18 0.14 0.41 0.36
0.45 0.43 0.87 0.84 0.45 0.63 0.56 1.05 0.98 1.25 1.03 0.38 0.45 0.31 0.15 0.18 0.60 1.02 0.71 0.80 0.20 0.46 0.62 0.51 0.46 0.60 0.19 0.03 0.03 0.06 0.42 0.52 0.42 0.35 0.28 0.25 0.37 0.30 0.29 0.32 0.35 0.14
0.74 0.69 0.39 0.52 0.25 0.66 0.45 0.90 0.78 0.43 0.39 0.32 0.27 0.18 0.49 0.43 0.46 0.58 0.82 0.81 0.50 0.53 0.98 0.75 0.56 0.31 0.40 0.31 0.08 0.02 0.06 0.34 0.29 0.29 0.28 0.24 0.13 0.11 0.23 0.17 0.13 0.10
0.48 0.46 0.41 0.48 0.53 0.44 0.46 0.33 0.34 0.42 0.39 0.33 0.20 0.31 0.18 0.18 0.27 0.27 0.35 0.56 0.67 0.54 0.54 0.76 0.25 0.07 0.02 0.09 0.22 0.03 0.15 0.31 0.18 0.22 0.09 0.08 0.04 0.07 0.03 0.04 0.05 0.21
0.64 0.58 0.51 0.57 0.29 0.36 0.58 1.08 0.75 0.35 0.32 0.19 0.13 0.13 0.13 0.18 0.12 0.10 0.20 0.21 0.27 0.53 0.65 0.23 0.03 0.01 0.01 0.01 0.01 0.02 0.03 0.04 0.08 0.20 0.20 0.31 0.04 0.06 0.01 0.05 0.02 0.02
0.45 0.56 0.40 0.34 0.46 0.42 0.36 0.32 0.20 0.18 0.15 0.12 0.11 0.10 0.09 0.09 0.17 0.33 0.68 0.42 0.47 0.68 0.14 0.05 0.02 0.02 0.00 0.00 0.00 0.01 0.03 0.03 0.05 0.04 0.04 0.05 0.05 0.13 0.04 0.02 0.01 0.00
0.12 0.16 0.21 0.43 0.56 0.53 0.48 0.21 0.14 0.15 0.14 0.11 0.10 0.18 0.11 0.16 0.11 0.05 0.07 0.07 0.05 0.11 0.24 0.07 0.04 0.10 0.04 0.05 0.03 0.01 0.01 0.01 0.05 0.10 0.07 0.08 0.04 0.03 0.15 0.02 0.04 0.02
0.36 0.25 0.11 0.28 0.27 0.16 0.23 0.23 0.16 0.07 0.23 0.16 0.28 0.14 0.15 0.21 0.25 0.15 0.15 0.17 0.10 0.12 0.08 0.08 0.05 0.02 0.02 0.00 0.01 0.01 0.01 0.02 0.03 0.06 0.06 0.05 0.05 0.18 0.03 0.05 0.02 0.05
0.08 0.25 0.28 0.12 0.09 0.06 0.05 0.03 0.02 0.02 0.03 0.03 0.02 0.01 0.02 0.01 0.03 0.03 0.03 0.04 0.02 0.01 0.03 0.02 0.02 0.01 0.02 0.01 0.00 0.00 0.01 0.02 0.04 0.07 0.06 0.06 0.02 0.02 0.03 0.02 0.04 0.01
0.22 0.11 0.23 0.12 0.11 0.06 0.03 0.04 0.03 0.05 0.04 0.02 0.03 0.02 0.03 0.04 0.05 0.03 0.02 0.02 0.03 0.03 0.02 0.02 0.02 0.03 0.02 0.01 0.00 0.00 0.01 0.04 0.07 0.07 0.07 0.07 0.05 0.03 0.02 0.02 0.03 0.01
0.06 0.17 0.19 0.43 0.37 0.21 0.09 0.08 0.04 0.07 0.06 0.03 0.04 0.05 0.06 0.07 0.07 0.10 0.02 0.06 0.02 0.02 0.02 0.04 0.04 0.04 0.02 0.01 0.01 0.00 0.06 0.08 0.06 0.10 0.10 0.06 0.05 0.05 0.08 0.09 0.03 0.05
0.16 0.15 0.20 0.13 0.22 0.08 0.22 0.39 0.44 0.26 0.21 0.19 0.12 0.12 0.09 0.06 0.05 0.03 0.02 0.01 0.01 0.02 0.03 0.04 0.04 0.04 0.03 0.02 0.01 0.02 0.07 0.06 0.04 0.10 0.09 0.07 0.07 0.05 0.08 0.09 0.07 0.07

ECMWFNIL_prec_precacc_063.txt.gz
Total_Precipitation_Accumulation
0.00 0.00 0.00 0.00 0.00 0.00 0.00 0.00 0.00 0.00 0.00 0.00 0.00 0.00 0.00 0.00 0.00 0.00 0.00 0.00 0.00 0.00 0.00 0.00 0.00 0.00 0.00 0.01 0.01 0.03 0.04 0.01 0.04 0.06 0.08 0.07 0.08 0.21 0.15 0.25 0.39 0.38
0.00 0.00 0.01 0.00 0.00 0.00 0.00 0.00 0.00 0.00 0.00 0.00 0.00 0.00 0.00 0.00 0.00 0.00 0.00 0.00 0.00 0.00 0.00 0.00 0.00 0.00 0.00 0.01 0.01 0.01 0.01 0.07 0.06 0.02 0.06 0.09 0.13 0.11 0.18 0.21 0.22 0.29
0.00 0.00 0.00 0.00 0.00 0.00 0.00 0.00 0.00 0.00 0.00 0.00 0.00 0.00 0.00 0.00 0.01 0.01 0.01 0.01 0.01 0.01 0.01 0.00 0.00 0.00 0.00 0.00 0.01 0.01 0.01 0.01 0.05 0.05 0.09 0.06 0.16 0.11 0.11 0.15 0.15 0.13
0.00 0.01 0.00 0.00 0.00 0.00 0.00 0.00 0.00 0.00 0.00 0.00 0.00 0.00 0.00 0.00 0.00 0.00 0.00 0.01 0.01 0.01 0.00 0.01 0.00 0.00 0.00 0.00 0.00 0.01 0.02 0.01 0.01 0.03 0.10 0.09 0.04 0.06 0.10 0.09 0.11 0.15
0.04 0.00 0.04 0.00 0.00 0.00 0.00 0.00 0.00 0.00 0.00 0.00 0.00 0.00 0.01 0.00 0.00 0.01 0.01 0.01 0.01 0.01 0.00 0.00 0.00 0.00 0.00 0.00 0.01 0.01 0.01 0.01 0.01 0.01 0.02 0.08 0.14 0.06 0.04 0.10 0.13 0.10
0.18 0.27 0.02 0.01 0.01 0.00 0.00 0.00 0.00 0.00 0.00 0.00 0.00 0.00 0.00 0.00 0.01 0.01 0.00 0.01 0.00 0.00 0.01 0.01 0.00 0.00 0.00 0.00 0.00 0.01 0.01 0.01 0.02 0.01 0.01 0.02 0.09 0.16 0.12 0.06 0.11 0.09
0.08 0.10 0.07 0.01 0.01 0.00 0.00 0.01 0.00 0.00 0.01 0.00 0.00 0.00 0.00 0.00 0.00 0.00 0.00 0.00 0.00 0.00 0.00 0.00 0.00 0.00 0.00 0.00 0.01 0.01 0.01 0.01 0.01 0.01 0.01 0.01 0.01 0.07 0.17 0.11 0.08 0.05
0.24 0.23 0.16 0.15 0.09 0.00 0.01 0.00 0.00 0.00 0.00 0.00 0.00 0.00 0.00 0.00 0.00 0.00 0.00 0.00 0.00 0.00 0.00 0.00 0.00 0.00 0.00 0.00 0.00 0.01 0.01 0.01 0.01 0.01 0.00 0.01 0.01 0.02 0.03 0.13 0.11 0.08
0.48 0.57 0.22 0.14 0.09 0.01 0.01 0.01 0.02 0.01 0.02 0.02 0.01 0.01 0.00 0.00 0.00 0.00 0.00 0.00 0.00 0.00 0.00 0.00 0.01 0.01 0.01 0.01 0.01 0.01 0.01 0.01 0.00 0.00 0.01 0.01 0.01 0.01 0.01 0.04 0.12 0.12
0.65 0.38 0.37 0.44 0.34 0.30 0.14 0.11 0.07 0.12 0.14 0.05 0.01 0.01 0.01 0.04 0.01 0.02 0.00 0.00 0.00 0.00 0.01 0.00 0.00 0.00 0.01 0.01 0.01 0.01 0.01 0.01 0.01 0.01 0.00 0.01 0.01 0.01 0.02 0.01 0.02 0.06
0.53 0.61 0.45 0.32 0.38 0.46 0.44 0.29 0.23 0.28 0.40 0.34 0.31 0.25 0.15 0.13 0.10 0.04 0.02 0.02 0.01 0.01 0.01 0.01 0.01 0.01 0.02 0.01 0.02 0.02 0.03 0.03 0.03 0.07 0.07 0.02 0.05 0.02 0.02 0.03 0.02 0.03
0.28 0.45 0.90 0.87 0.50 0.36 0.22 0.12 0.14 0.21 0.25 0.33 0.36 0.40 0.46 0.35 0.25 0.21 0.07 0.05 0.04 0.09 0.03 0.05 0.07 0.07 0.02 0.05 0.08 0.06 0.10 0.12 0.10 0.05 0.08 0.13 0.22 0.09 0.09 0.11 0.09 0.04
0.29 0.52 0.48 0.32 0.23 0.29 0.15 0.23 0.15 0.11 0.09 0.45 0.65 0.60 0.46 0.45 0.47 0.16 0.17 0.29 0.58 0.38 0.14 0.14 0.14 0.13 0.19 0.39 0.13 0.11 0.06 0.20 0.20 0.16 0.25 0.30 0.36 0.19 0.24 0.25 0.24 0.28
0.49 0.75 0.56 0.75 0.61 0.91 0.57 0.34 0.42 0.65 0.74 0.94 0.84 0.49 0.49 0.46 0.15 0.16 0.57 0.65 0.62 0.21 0.20 0.09 0.26 0.15 0.15 0.39 0.24 0.26 0.22 0.31 0.51 0.67 0.86 0.29 0.71 0.43 0.39 0.33 0.41 0.28
0.25 0.49 0.59 0.31 0.80 0.74 0.51 0.98 1.16 0.78 0.50 0.48 0.40 0.33 0.21 0.51 0.58 0.73 0.67 0.25 0.16 0.16 0.15 0.29 0.26 0.81 0.98 0.47 0.69 0.33 0.15 0.70 0.43 0.27 0.29 0.26 0.33 0.25 0.18 0.14 0.41 0.36
0.57 0.56 0.95 0.93 0.67 0.70 0.58 1.25 1.09 1.30 1.11 0.41 0.47 0.31 0.15 0.18 0.60 1.02 0.71 0.80 0.20 0.46 0.62 0.51 0.46 0.60 0.21 0.05 0.05 0.07 0.42 0.52 0.42 0.35 0.28 0.25 0.37 0.30 0.29 0.32 0.35 0.14
1.05 1.15 0.74 0.89 0.64 1.09 0.68 1.04 0.82 0.49 0.51 0.42 0.31 0.19 0.49 0.43 0.46 0.58 0.82 0.81 0.50 0.53 0.98 0.75 0.56 0.32 0.42 0.33 0.10 0.03 0.06 0.34 0.29 0.29 0.28 0.24 0.13 0.11 0.23 0.17 0.13 0.10
0.69 0.83 0.74 0.63 0.73 0.57 0.66 0.43 0.37 0.44 0.41 0.35 0.22 0.32 0.18 0.18 0.27 0.27 0.35 0.56 0.67 0.54 0.54 0.76 0.25 0.07 0.03 0.10 0.22 0.03 0.15 0.31 0.18 0.22 0.09 0.08 0.04 0.07 0.03 0.04 0.05 0.21
0.71 0.59 0.52 0.61 0.32 0.48 0.73 1.13 0.77 0.37 0.33 0.20 0.13 0.13 0.13 0.18 0.12 0.10 0.20 0.21 0.27 0.53 0.65 0.23 0.03 0.01 0.01 0.01 0.01 0.02 0.03 0.04 0.08 0.20 0.20 0.31 0.04 0.06 0.01 0.05 0.02 0.02
0.45 0.57 0.43 0.37 0.50 0.54 0.42 0.37 0.24 0.19 0.15 0.13 0.11 0.14 0.12 0.09 0.17 0.33 0.68 0.42 0.47 0.68 0.14 0.05 0.02 0.02 0.00 0.00 0.01 0.01 0.03 0.03 0.05 0.04 0.04 0.05 0.05 0.13 0.04 0.02 0.01 0.00
0.12 0.19 0.24 0.45 0.58 0.54 0.51 0.24 0.15 0.22 0.17 0.16 0.11 0.20 0.14 0.33 0.20 0.05 0.07 0.07 0.05 0.11 0.24 0.07 0.04 0.10 0.04 0.05 0.04 0.01 0.01 0.01 0.05 0.10 0.07 0.08 0.04 0.03 0.15 0.02 0.04 0.02
0.36 0.31 0.11 0.28 0.29 0.21 0.28 0.32 0.23 0.15 0.28 0.20 0.35 0.14 0.20 0.25 0.26 0.15 0.15 0.17 0.10 0.12 0.08 0.08 0.05 0.02 0.02 0.00 0.01 0.01 0.01 0.02 0.03 0.06 0.06 0.05 0.05 0.18 0.03 0.05 0.02 0.05
0.09 0.25 0.28 0.12 0.09 0.06 0.05 0.04 0.03 0.02 0.03 0.05 0.05 0.03 0.02 0.02 0.03 0.03 0.03 0.04 0.02 0.01 0.03 0.02 0.02 0.01 0.02 0.01 0.01 0.01 0.01 0.02 0.04 0.07 0.06 0.06 0.02 0.02 0.03 0.02 0.04 0.01
0.22 0.14 0.23 0.12 0.11 0.06 0.03 0.04 0.03 0.05 0.04 0.02 0.03 0.02 0.03 0.04 0.05 0.03 0.02 0.02 0.03 0.03 0.02 0.02 0.02 0.03 0.02 0.01 0.00 0.00 0.01 0.04 0.07 0.07 0.07 0.07 0.05 0.03 0.02 0.02 0.03 0.01
0.06 0.17 0.19 0.55 0.40 0.21 0.09 0.08 0.04 0.07 0.06 0.03 0.04 0.05 0.06 0.07 0.07 0.10 0.02 0.06 0.02 0.02 0.02 0.04 0.04 0.04 0.02 0.01 0.01 0.00 0.06 0.08 0.06 0.10 0.10 0.06 0.05 0.05 0.08 0.09 0.03 0.05
0.16 0.15 0.20 0.13 0.22 0.09 0.22 0.39 0.44 0.26 0.21 0.19 0.12 0.12 0.09 0.06 0.05 0.03 0.02 0.01 0.01 0.02 0.03 0.04 0.04 0.04 0.03 0.02 0.01 0.02 0.07 0.06 0.04 0.10 0.09 0.07 0.07 0.05 0.08 0.09 0.07 0.07

ECMWFNIL_prec_precacc_069.txt.gz
Total_Precipitation_Accumulation
0.00 0.00 0.00 0.00 0.00 0.00 0.00 0.00 0.00 0.00 0.00 0.00 0.00 0.00 0.00 0.00 0.00 0.00 0.00 0.00 0.00 0.00 0.00 0.00 0.00 0.00 0.00 0.01 0.01 0.03 0.04 0.01 0.04 0.06 0.08 0.07 0.08 0.21 0.15 0.25 0.39 0.38
0.00 0.00 0.01 0.00 0.00 0.00 0.00 0.00 0.00 0.00 0.00 0.00 0.00 0.00 0.00 0.00 0.00 0.00 0.00 0.00 0.00 0.00 0.00 0.00 0.00 0.00 0.00 0.01 0.01 0.01 0.01 0.07 0.06 0.02 0.06 0.09 0.13 0.11 0.18 0.21 0.22 0.29
0.00 0.00 0.00 0.00 0.00 0.00 0.00 0.00 0.00 0.00 0.00 0.00 0.00 0.00 0.00 0.00 0.01 0.01 0.01 0.01 0.01 0.01 0.01 0.00 0.00 0.00 0.00 0.00 0.01 0.01 0.01 0.01 0.05 0.05 0.09 0.06 0.16 0.11 0.11 0.15 0.15 0.13
0.00 0.01 0.00 0.00 0.00 0.00 0.00 0.00 0.00 0.00 0.00 0.00 0.00 0.00 0.00 0.00 0.00 0.00 0.00 0.01 0.01 0.01 0.00 0.00 0.00 0.00 0.00 0.00 0.00 0.01 0.02 0.01 0.01 0.03 0.10 0.09 0.04 0.06 0.10 0.09 0.11 0.15
0.04 0.00 0.04 0.00 0.00 0.00 0.00 0.00 0.00 0.00 0.00 0.00 0.00 0.00 0.01 0.00 0.00 0.01 0.01 0.01 0.01 0.01 0.00 0.00 0.00 0.00 0.00 0.00 0.01 0.01 0.01 0.01 0.01 0.01 0.02 0.08 0.15 0.06 0.04 0.10 0.13 0.10
0.18 0.27 0.02 0.01 0.01 0.00 0.00 0.00 0.00 0.00 0.00 0.00 0.00 0.00 0.00 0.00 0.01 0.01 0.00 0.01 0.00 0.00 0.01 0.01 0.00 0.00 0.00 0.00 0.00 0.01 0.01 0.01 0.02 0.01 0.01 0.02 0.09 0.16 0.12 0.06 0.11 0.09
0.08 0.10 0.07 0.01 0.01 0.00 0.00 0.01 0.00 0.00 0.01 0.00 0.00 0.00 0.00 0.00 0.00 0.00 0.00 0.00 0.00 0.00 0.00 0.00 0.00 0.00 0.00 0.00 0.01 0.01 0.01 0.01 0.01 0.01 0.01 0.01 0.01 0.07 0.17 0.11 0.08 0.05
0.25 0.23 0.16 0.16 0.09 0.00 0.01 0.00 0.00 0.00 0.00 0.00 0.00 0.00 0.00 0.00 0.00 0.00 0.00 0.00 0.00 0.00 0.00 0.00 0.00 0.00 0.00 0.00 0.00 0.01 0.01 0.01 0.01 0.01 0.00 0.01 0.01 0.02 0.03 0.13 0.11 0.08
0.48 0.57 0.22 0.14 0.10 0.02 0.01 0.01 0.02 0.01 0.02 0.02 0.01 0.01 0.01 0.00 0.00 0.00 0.01 0.00 0.00 0.00 0.00 0.00 0.01 0.01 0.01 0.01 0.01 0.01 0.01 0.01 0.00 0.00 0.01 0.01 0.01 0.01 0.01 0.04 0.12 0.12
0.65 0.38 0.37 0.44 0.34 0.30 0.14 0.11 0.07 0.12 0.14 0.05 0.01 0.01 0.01 0.04 0.01 0.02 0.00 0.00 0.00 0.00 0.01 0.00 0.00 0.00 0.01 0.01 0.02 0.01 0.01 0.01 0.01 0.01 0.01 0.01 0.01 0.01 0.02 0.01 0.02 0.06
0.68 0.67 0.46 0.33 0.38 0.46 0.44 0.29 0.23 0.28 0.40 0.34 0.31 0.25 0.15 0.13 0.10 0.04 0.02 0.02 0.01 0.01 0.01 0.01 0.01 0.01 0.02 0.01 0.02 0.02 0.03 0.03 0.03 0.07 0.06 0.02 0.05 0.02 0.02 0.03 0.02 0.03
0.70 0.54 1.31 1.13 0.52 0.38 0.24 0.12 0.14 0.21 0.25 0.33 0.36 0.40 0.46 0.35 0.25 0.21 0.07 0.05 0.04 0.09 0.03 0.05 0.07 0.07 0.02 0.05 0.08 0.06 0.10 0.12 0.10 0.05 0.08 0.13 0.22 0.09 0.09 0.11 0.09 0.04
0.55 0.93 0.73 0.44 0.37 0.36 0.16 0.24 0.15 0.12 0.11 0.46 0.66 0.60 0.46 0.45 0.47 0.16 0.17 0.29 0.58 0.38 0.14 0.14 0.14 0.13 0.19 0.39 0.13 0.11 0.06 0.20 0.20 0.16 0.25 0.30 0.36 0.19 0.24 0.25 0.24 0.28
0.71 0.93 0.93 0.93 0.74 1.01 0.62 0.36 0.43 0.66 0.79 1.00 0.89 0.52 0.50 0.46 0.15 0.16 0.57 0.65 0.62 0.21 0.20 0.09 0.26 0.15 0.15 0.39 0.24 0.26 0.22 0.31 0.51 0.67 0.86 0.29 0.71 0.43 0.39 0.33 0.41 0.28
0.44 0.55 1.09 0.55 0.90 0.85 0.54 1.00 1.21 0.83 0.55 0.54 0.44 0.36 0.22 0.51 0.58 0.73 0.67 0.25 0.16 0.16 0.15 0.29 0.26 0.81 0.98 0.47 0.69 0.33 0.15 0.71 0.43 0.27 0.29 0.26 0.33 0.25 0.18 0.14 0.41 0.36
0.58 0.58 0.97 1.14 0.71 0.73 0.68 1.38 1.13 1.33 1.13 0.42 0.49 0.32 0.16 0.18 0.60 1.02 0.71 0.80 0.20 0.46 0.62 0.51 0.46 0.60 0.21 0.06 0.05 0.07 0.42 0.52 0.42 0.35 0.28 0.25 0.37 0.30 0.29 0.32 0.35 0.14
1.05 1.15 0.91 0.90 0.83 1.39 0.69 1.05 0.86 0.53 0.53 0.43 0.32 0.20 0.50 0.43 0.46 0.58 0.82 0.81 0.50 0.53 0.98 0.75 0.56 0.32 0.42 0.33 0.10 0.03 0.06 0.34 0.29 0.29 0.28 0.24 0.13 0.11 0.23 0.17 0.13 0.10
0.69 0.86 0.83 0.63 0.84 0.69 0.69 0.62 0.39 0.45 0.42 0.36 0.24 0.33 0.18 0.18 0.27 0.27 0.35 0.56 0.67 0.54 0.54 0.76 0.25 0.07 0.03 0.10 0.22 0.03 0.15 0.31 0.18 0.22 0.09 0.08 0.04 0.07 0.03 0.04 0.05 0.21
0.71 0.59 0.52 0.61 0.32 0.49 0.74 1.16 0.78 0.38 0.33 0.20 0.13 0.13 0.13 0.18 0.12 0.10 0.20 0.21 0.27 0.53 0.65 0.23 0.03 0.02 0.01 0.01 0.01 0.02 0.03 0.04 0.08 0.20 0.20 0.31 0.05 0.06 0.01 0.05 0.02 0.02
0.46 0.62 0.49 0.37 0.50 0.54 0.42 0.38 0.25 0.20 0.16 0.13 0.11 0.14 0.12 0.09 0.17 0.33 0.68 0.42 0.47 0.68 0.14 0.05 0.02 0.02 0.01 0.01 0.01 0.01 0.03 0.03 0.05 0.04 0.04 0.05 0.05 0.13 0.04 0.02 0.01 0.00
0.14 0.20 0.24 0.45 0.59 0.60 0.53 0.24 0.15 0.22 0.17 0.16 0.11 0.20 0.14 0.33 0.20 0.05 0.07 0.07 0.05 0.11 0.24 0.07 0.04 0.10 0.05 0.05 0.04 0.01 0.01 0.02 0.05 0.10 0.07 0.08 0.04 0.03 0.15 0.02 0.04 0.02
0.36 0.32 0.13 0.30 0.30 0.21 0.30 0.35 0.25 0.15 0.28 0.20 0.35 0.14 0.20 0.25 0.27 0.15 0.15 0.17 0.10 0.12 0.08 0.08 0.05 0.02 0.02 0.01 0.01 0.01 0.02 0.02 0.03 0.06 0.06 0.05 0.05 0.18 0.03 0.05 0.02 0.05
0.09 0.25 0.28 0.12 0.09 0.06 0.05 0.04 0.03 0.02 0.03 0.05 0.06 0.03 0.13 0.31 0.79 0.12 0.18 0.17 0.20 0.03 0.03 0.02 0.02 0.02 0.03 0.01 0.01 0.01 0.04 0.03 0.04 0.11 0.07 0.09 0.05 0.02 0.03 0.02 0.04 0.01
0.23 0.14 0.23 0.12 0.11 0.06 0.03 0.04 0.03 0.12 0.30 0.75 0.25 0.78 0.51 0.56 0.57 0.40 0.59 0.62 0.23 0.21 0.37 1.08 0.70 0.12 0.06 0.09 0.03 0.01 0.05 0.05 0.07 0.07 0.07 0.11 0.06 0.05 0.06 0.02 0.03 0.01
0.06 0.17 0.19 0.55 0.40 0.21 0.09 0.08 0.04 0.07 0.06 0.03 0.10 0.05 0.07 0.07 0.07 0.11 0.46 0.23 0.07 0.14 0.07 0.56 0.16 0.06 0.03 0.02 0.01 0.01 0.06 0.08 0.06 0.10 0.17 0.13 0.09 0.10 0.08 0.09 0.03 0.05
0.16 0.15 0.20 0.13 0.22 0.09 0.22 0.39 0.44 0.26 0.21 0.19 0.13 0.12 0.10 0.06 0.05 0.03 0.05 0.12 0.14 0.08 0.03 0.04 0.04 0.04 0.03 0.03 0.02 0.02 0.07 0.06 0.04 0.10 0.09 0.07 0.07 0.05 0.09 0.10 0.07 0.07

ECMWFNIL_prec_precacc_072.txt.gz
Total_Precipitation_Accumulation
0.00 0.00 0.00 0.00 0.00 0.00 0.00 0.00 0.00 0.00 0.00 0.00 0.00 0.00 0.00 0.00 0.00 0.00 0.00 0.00 0.00 0.00 0.00 0.00 0.00 0.00 0.00 0.01 0.01 0.03 0.04 0.01 0.04 0.06 0.08 0.07 0.08 0.21 0.15 0.25 0.39 0.38
0.00 0.00 0.01 0.00 0.00 0.00 0.00 0.00 0.00 0.00 0.00 0.00 0.00 0.00 0.00 0.00 0.00 0.00 0.00 0.00 0.00 0.00 0.00 0.00 0.00 0.00 0.00 0.01 0.01 0.01 0.01 0.07 0.06 0.02 0.06 0.09 0.13 0.11 0.18 0.21 0.22 0.29
0.00 0.00 0.00 0.00 0.00 0.00 0.00 0.00 0.00 0.00 0.00 0.00 0.00 0.00 0.00 0.00 0.01 0.01 0.01 0.01 0.01 0.01 0.01 0.00 0.00 0.00 0.00 0.00 0.01 0.01 0.01 0.01 0.05 0.05 0.09 0.06 0.16 0.11 0.11 0.15 0.15 0.13
0.00 0.01 0.00 0.00 0.00 0.00 0.00 0.00 0.00 0.00 0.00 0.00 0.00 0.00 0.00 0.00 0.00 0.00 0.00 0.01 0.01 0.01 0.00 0.00 0.00 0.00 0.00 0.00 0.00 0.01 0.02 0.01 0.01 0.03 0.10 0.09 0.04 0.06 0.10 0.09 0.11 0.15
0.04 0.00 0.04 0.00 0.00 0.00 0.00 0.00 0.00 0.00 0.00 0.00 0.00 0.00 0.01 0.00 0.00 0.01 0.01 0.01 0.01 0.01 0.00 0.00 0.00 0.00 0.00 0.00 0.01 0.01 0.01 0.01 0.01 0.01 0.02 0.08 0.15 0.06 0.04 0.10 0.13 0.10
0.18 0.27 0.02 0.01 0.01 0.00 0.00 0.00 0.00 0.00 0.00 0.00 0.00 0.00 0.00 0.00 0.01 0.01 0.00 0.01 0.00 0.00 0.01 0.01 0.00 0.00 0.00 0.00 0.00 0.01 0.01 0.01 0.02 0.01 0.01 0.02 0.09 0.16 0.12 0.06 0.11 0.09
0.08 0.10 0.07 0.01 0.01 0.00 0.00 0.01 0.00 0.00 0.01 0.00 0.00 0.00 0.00 0.00 0.00 0.00 0.00 0.00 0.00 0.00 0.00 0.00 0.00 0.00 0.00 0.00 0.01 0.01 0.01 0.01 0.01 0.01 0.01 0.01 0.01 0.07 0.17 0.11 0.08 0.05
0.25 0.23 0.16 0.16 0.09 0.00 0.01 0.00 0.00 0.00 0.00 0.00 0.00 0.00 0.00 0.00 0.00 0.00 0.00 0.00 0.00 0.00 0.00 0.00 0.00 0.00 0.00 0.00 0.00 0.01 0.01 0.01 0.01 0.01 0.00 0.01 0.01 0.02 0.03 0.13 0.11 0.08
0.48 0.57 0.22 0.14 0.10 0.02 0.01 0.01 0.02 0.01 0.02 0.02 0.01 0.01 0.01 0.00 0.00 0.00 0.01 0.00 0.00 0.00 0.00 0.00 0.01 0.01 0.01 0.01 0.01 0.01 0.01 0.01 0.00 0.00 0.01 0.01 0.01 0.01 0.01 0.04 0.12 0.12
0.65 0.38 0.37 0.44 0.34 0.30 0.14 0.11 0.07 0.12 0.14 0.05 0.01 0.01 0.01 0.04 0.01 0.02 0.00 0.00 0.00 0.00 0.01 0.00 0.00 0.00 0.01 0.01 0.02 0.01 0.01 0.01 0.01 0.01 0.01 0.01 0.01 0.01 0.02 0.01 0.02 0.06
0.68 0.67 0.46 0.33 0.38 0.46 0.44 0.29 0.23 0.28 0.40 0.34 0.31 0.25 0.15 0.13 0.10 0.04 0.02 0.02 0.01 0.01 0.01 0.01 0.01 0.01 0.02 0.01 0.02 0.02 0.03 0.03 0.03 0.07 0.06 0.02 0.05 0.02 0.02 0.03 0.02 0.03
0.71 0.55 1.32 1.13 0.52 0.38 0.24 0.12 0.14 0.21 0.25 0.33 0.36 0.40 0.46 0.35 0.25 0.21 0.07 0.05 0.04 0.09 0.03 0.05 0.07 0.07 0.02 0.05 0.08 0.06 0.10 0.12 0.10 0.05 0.08 0.13 0.22 0.09 0.09 0.11 0.09 0.04
0.62 0.93 0.73 0.44 0.37 0.36 0.16 0.24 0.15 0.12 0.11 0.46 0.66 0.60 0.46 0.45 0.47 0.16 0.17 0.29 0.58 0.38 0.14 0.14 0.14 0.13 0.19 0.39 0.13 0.11 0.06 0.20 0.20 0.16 0.25 0.30 0.36 0.19 0.24 0.25 0.24 0.28
0.91 1.20 1.03 0.94 0.74 1.03 0.64 0.36 0.43 0.66 0.79 1.00 0.89 0.52 0.50 0.46 0.15 0.16 0.57 0.65 0.62 0.21 0.20 0.09 0.26 0.15 0.15 0.39 0.24 0.26 0.22 0.31 0.51 0.67 0.86 0.29 0.71 0.43 0.39 0.33 0.41 0.28
0.73 0.77 1.24 0.62 1.00 0.97 0.56 1.00 1.21 0.83 0.55 0.54 0.44 0.36 0.22 0.51 0.58 0.73 0.67 0.25 0.16 0.16 0.15 0.29 0.26 0.81 0.98 0.47 0.69 0.33 0.15 0.71 0.43 0.27 0.29 0.26 0.33 0.25 0.18 0.14 0.41 0.36
0.59 0.76 1.19 1.35 0.82 0.81 0.69 1.39 1.13 1.33 1.13 0.42 0.49 0.32 0.16 0.18 0.60 1.02 0.71 0.80 0.20 0.46 0.62 0.51 0.46 0.60 0.21 0.06 0.05 0.07 0.42 0.52 0.42 0.35 0.28 0.25 0.37 0.30 0.29 0.32 0.35 0.14
1.06 1.15 0.91 0.98 0.98 1.69 0.78 1.06 0.86 0.53 0.53 0.43 0.32 0.20 0.50 0.43 0.46 0.58 0.82 0.81 0.50 0.53 0.98 0.75 0.56 0.32 0.42 0.33 0.10 0.03 0.06 0.34 0.29 0.29 0.28 0.26 0.16 0.11 0.23 0.17 0.13 0.10
0.70 1.16 1.39 0.65 0.84 0.70 0.70 0.79 0.41 0.45 0.42 0.36 0.24 0.33 0.18 0.18 0.27 0.27 0.35 0.56 0.67 0.54 0.54 0.76 0.25 0.07 0.03 0.10 0.22 0.03 0.15 0.31 0.18 0.22 0.09 0.08 0.04 0.07 0.03 0.04 0.05 0.21
0.71 0.64 0.53 0.62 0.32 0.49 0.74 1.16 0.78 0.39 0.34 0.20 0.13 0.13 0.13 0.18 0.12 0.10 0.20 0.21 0.27 0.53 0.65 0.23 0.03 0.02 0.01 0.02 0.01 0.02 0.03 0.04 0.08 0.20 0.20 0.31 0.05 0.06 0.01 0.05 0.02 0.02
0.47 0.63 0.52 0.38 0.51 0.54 0.43 0.38 0.25 0.20 0.16 0.17 0.12 0.14 0.12 0.09 0.17 0.33 0.68 0.42 0.47 0.68 0.14 0.05 0.02 0.02 0.01 0.01 0.01 0.01 0.03 0.03 0.05 0.04 0.04 0.05 0.05 0.13 0.04 0.02 0.01 0.00
0.14 0.21 0.24 0.46 0.61 0.90 1.17 0.24 0.15 0.22 0.17 0.16 0.11 0.20 0.14 0.33 0.20 0.05 0.07 0.07 0.05 0.11 0.24 0.07 0.04 0.10 0.05 0.05 0.04 0.01 0.02 0.02 0.05 0.10 0.07 0.08 0.04 0.03 0.15 0.02 0.04 0.02
0.36 0.32 0.14 0.31 0.30 0.30 0.33 0.35 0.25 0.15 0.28 0.20 0.35 0.14 0.20 0.25 0.27 0.15 0.15 0.17 0.10 0.12 0.08 0.08 0.05 0.02 0.02 0.01 0.01 0.01 0.02 0.03 0.03 0.06 0.06 0.05 0.05 0.18 0.03 0.05 0.02 0.05
0.09 0.26 0.29 0.12 0.09 0.09 0.08 0.04 0.03 0.03 0.03 0.05 0.06 0.03 0.13 0.31 0.79 0.13 0.18 0.17 0.20 0.03 0.03 0.02 0.02 0.02 0.03 0.01 0.01 0.02 0.04 0.03 0.04 0.11 0.07 0.09 0.05 0.02 0.03 0.02 0.04 0.01
0.23 0.14 0.23 0.12 0.11 0.06 0.03 0.04 0.03 0.12 0.30 0.75 0.25 0.78 0.52 0.64 0.57 0.40 0.63 0.62 0.24 0.21 0.37 1.10 0.72 0.18 0.14 0.09 0.03 0.01 0.05 0.05 0.07 0.07 0.07 0.11 0.06 0.05 0.06 0.02 0.03 0.01
0.06 0.17 0.19 0.55 0.40 0.21 0.09 0.08 0.04 0.07 0.06 0.03 0.10 0.05 0.07 0.07 0.08 0.12 0.46 0.24 0.07 0.14 0.08 0.67 0.44 0.28 0.07 0.05 0.05 0.03 0.07 0.08 0.06 0.10 0.17 0.13 0.09 0.10 0.08 0.09 0.03 0.05
0.16 0.15 0.20 0.13 0.22 0.09 0.22 0.39 0.44 0.26 0.21 0.19 0.13 0.12 0.10 0.07 0.06 0.04 0.06 0.12 0.14 0.08 0.04 0.05 0.05 0.05 0.04 0.05 0.05 0.06 0.09 0.08 0.06 0.10 0.09 0.07 0.07 0.05 0.09 0.10 0.07 0.07

ECMWFNIL_prec_precacc_075.txt.gz
Total_Precipitation_Accumulation
0.00 0.00 0.00 0.00 0.00 0.00 0.00 0.00 0.00 0.00 0.00 0.00 0.00 0.00 0.00 0.00 0.00 0.00 0.00 0.00 0.00 0.00 0.00 0.00 0.00 0.00 0.00 0.01 0.01 0.03 0.04 0.01 0.04 0.06 0.08 0.07 0.08 0.21 0.15 0.25 0.39 0.38
0.00 0.00 0.01 0.00 0.00 0.00 0.00 0.00 0.00 0.00 0.00 0.00 0.00 0.00 0.00 0.00 0.00 0.00 0.00 0.00 0.00 0.00 0.00 0.00 0.00 0.00 0.00 0.01 0.01 0.01 0.01 0.07 0.06 0.02 0.06 0.09 0.13 0.11 0.18 0.21 0.22 0.29
0.00 0.00 0.00 0.00 0.00 0.00 0.00 0.00 0.00 0.00 0.00 0.00 0.00 0.00 0.00 0.00 0.01 0.01 0.01 0.01 0.01 0.01 0.01 0.00 0.00 0.00 0.00 0.00 0.01 0.01 0.01 0.01 0.05 0.05 0.09 0.06 0.16 0.11 0.11 0.15 0.15 0.13
0.00 0.01 0.00 0.00 0.00 0.00 0.00 0.00 0.00 0.00 0.00 0.00 0.00 0.00 0.00 0.00 0.00 0.00 0.00 0.01 0.01 0.01 0.00 0.00 0.00 0.00 0.00 0.00 0.00 0.01 0.02 0.01 0.01 0.03 0.10 0.09 0.04 0.06 0.10 0.09 0.11 0.15
0.04 0.00 0.04 0.00 0.00 0.00 0.00 0.00 0.00 0.00 0.00 0.00 0.00 0.00 0.01 0.00 0.00 0.01 0.01 0.01 0.01 0.01 0.00 0.00 0.00 0.00 0.00 0.00 0.01 0.01 0.01 0.01 0.01 0.01 0.02 0.08 0.15 0.06 0.04 0.10 0.13 0.10
0.18 0.27 0.02 0.01 0.01 0.00 0.00 0.00 0.00 0.00 0.00 0.00 0.00 0.00 0.00 0.00 0.01 0.01 0.00 0.01 0.00 0.00 0.01 0.01 0.00 0.00 0.00 0.00 0.00 0.01 0.01 0.01 0.02 0.01 0.01 0.02 0.09 0.16 0.12 0.06 0.11 0.09
0.08 0.10 0.07 0.01 0.01 0.00 0.00 0.01 0.00 0.00 0.01 0.00 0.00 0.00 0.00 0.00 0.00 0.00 0.00 0.00 0.00 0.00 0.00 0.00 0.00 0.00 0.00 0.00 0.01 0.01 0.01 0.01 0.01 0.01 0.01 0.01 0.01 0.07 0.17 0.11 0.08 0.05
0.25 0.23 0.16 0.16 0.09 0.00 0.01 0.00 0.00 0.00 0.00 0.00 0.00 0.00 0.00 0.00 0.00 0.00 0.00 0.00 0.00 0.00 0.00 0.00 0.00 0.00 0.00 0.00 0.00 0.01 0.01 0.01 0.01 0.01 0.00 0.01 0.01 0.02 0.03 0.13 0.11 0.08
0.48 0.57 0.22 0.14 0.10 0.02 0.01 0.01 0.02 0.01 0.02 0.02 0.01 0.01 0.01 0.00 0.00 0.00 0.01 0.00 0.00 0.00 0.00 0.00 0.01 0.01 0.01 0.01 0.01 0.01 0.01 0.01 0.00 0.00 0.01 0.01 0.01 0.01 0.01 0.04 0.12 0.12
0.65 0.38 0.37 0.44 0.34 0.30 0.14 0.11 0.07 0.12 0.14 0.05 0.01 0.01 0.01 0.04 0.01 0.02 0.00 0.00 0.00 0.00 0.01 0.00 0.00 0.00 0.01 0.01 0.02 0.01 0.01 0.01 0.01 0.01 0.01 0.01 0.01 0.01 0.02 0.01 0.02 0.06
0.68 0.67 0.46 0.33 0.38 0.46 0.44 0.29 0.23 0.28 0.40 0.34 0.31 0.25 0.15 0.13 0.10 0.04 0.02 0.02 0.01 0.01 0.01 0.01 0.01 0.01 0.02 0.01 0.02 0.02 0.03 0.03 0.03 0.07 0.06 0.02 0.05 0.02 0.02 0.03 0.02 0.03
0.71 0.55 1.32 1.13 0.52 0.38 0.24 0.12 0.14 0.21 0.25 0.33 0.36 0.40 0.46 0.35 0.25 0.21 0.07 0.05 0.04 0.09 0.03 0.05 0.07 0.07 0.02 0.05 0.08 0.06 0.10 0.12 0.10 0.05 0.08 0.13 0.22 0.09 0.09 0.11 0.09 0.04
0.65 1.08 0.92 0.47 0.37 0.36 0.16 0.24 0.15 0.12 0.11 0.46 0.66 0.60 0.46 0.45 0.47 0.16 0.17 0.29 0.58 0.38 0.14 0.14 0.14 0.13 0.19 0.39 0.13 0.11 0.06 0.20 0.20 0.16 0.25 0.30 0.36 0.19 0.24 0.25 0.24 0.28
0.98 1.44 1.18 0.99 0.74 1.03 0.64 0.36 0.43 0.66 0.79 1.00 0.89 0.52 0.50 0.46 0.15 0.16 0.57 0.65 0.62 0.21 0.20 0.09 0.26 0.15 0.15 0.39 0.24 0.26 0.22 0.31 0.51 0.67 0.86 0.29 0.71 0.43 0.39 0.33 0.41 0.28
0.82 1.00 1.46 0.77 1.03 0.97 0.56 1.00 1.21 0.83 0.55 0.54 0.44 0.36 0.22 0.51 0.58 0.73 0.67 0.25 0.16 0.16 0.15 0.29 0.26 0.81 0.98 0.47 0.69 0.33 0.15 0.71 0.43 0.27 0.29 0.26 0.33 0.25 0.18 0.14 0.41 0.36
0.66 1.03 1.37 1.47 0.99 0.82 0.70 1.40 1.13 1.33 1.13 0.42 0.49 0.32 0.16 0.18 0.60 1.02 0.71 0.80 0.20 0.46 0.62 0.51 0.46 0.60 0.21 0.06 0.05 0.07 0.42 0.52 0.42 0.35 0.28 0.25 0.37 0.30 0.29 0.32 0.35 0.14
1.06 1.15 1.04 1.23 1.27 2.27 1.07 1.10 0.87 0.53 0.53 0.43 0.32 0.20 0.50 0.43 0.46 0.58 0.82 0.81 0.50 0.53 0.98 0.75 0.56 0.32 0.42 0.33 0.10 0.03 0.06 0.34 0.29 0.29 0.28 0.26 0.21 0.12 0.23 0.17 0.13 0.10
0.70 1.16 1.40 0.69 1.06 1.21 1.06 1.05 0.49 0.46 0.42 0.36 0.24 0.33 0.18 0.18 0.27 0.27 0.35 0.56 0.67 0.54 0.54 0.76 0.25 0.07 0.03 0.10 0.22 0.03 0.15 0.31 0.18 0.22 0.09 0.08 0.04 0.07 0.03 0.04 0.05 0.21
0.73 0.69 0.54 0.63 0.37 0.51 0.82 1.28 0.94 0.44 0.35 0.20 0.13 0.14 0.13 0.18 0.12 0.10 0.20 0.21 0.27 0.53 0.65 0.23 0.03 0.02 0.01 0.02 0.01 0.02 0.03 0.04 0.08 0.20 0.20 0.31 0.05 0.06 0.01 0.05 0.02 0.02
0.47 0.64 0.52 0.38 0.52 0.59 0.47 0.39 0.26 0.22 0.18 0.18 0.12 0.16 0.12 0.09 0.17 0.33 0.68 0.42 0.47 0.68 0.14 0.05 0.02 0.02 0.01 0.01 0.01 0.02 0.03 0.03 0.05 0.04 0.04 0.05 0.05 0.13 0.04 0.02 0.01 0.00
0.14 0.21 0.25 0.46 0.61 0.90 1.17 0.24 0.15 0.22 0.17 0.16 0.11 0.20 0.14 0.33 0.20 0.05 0.07 0.07 0.05 0.11 0.24 0.07 0.04 0.11 0.05 0.05 0.04 0.02 0.02 0.02 0.05 0.10 0.07 0.08 0.04 0.03 0.15 0.02 0.04 0.02
0.36 0.32 0.14 0.31 0.30 0.30 0.33 0.35 0.25 0.15 0.28 0.20 0.35 0.14 0.20 0.25 0.27 0.15 0.15 0.17 0.10 0.12 0.08 0.08 0.05 0.02 0.02 0.01 0.01 0.02 0.02 0.03 0.03 0.06 0.06 0.05 0.05 0.18 0.03 0.05 0.02 0.05
0.09 0.26 0.29 0.13 0.10 0.09 0.08 0.04 0.03 0.03 0.03 0.05 0.06 0.03 0.13 0.31 0.79 0.13 0.18 0.17 0.20 0.03 0.03 0.02 0.02 0.02 0.03 0.01 0.02 0.02 0.04 0.03 0.04 0.11 0.07 0.09 0.05 0.02 0.03 0.02 0.04 0.01
0.23 0.14 0.23 0.12 0.11 0.06 0.04 0.04 0.03 0.12 0.30 0.75 0.25 0.78 0.52 0.64 0.57 0.40 0.63 0.62 0.24 0.21 0.37 1.10 0.72 0.18 0.14 0.09 0.03 0.01 0.05 0.05 0.07 0.07 0.07 0.11 0.06 0.05 0.06 0.02 0.03 0.01
0.06 0.17 0.19 0.55 0.40 0.21 0.09 0.10 0.06 0.07 0.06 0.03 0.10 0.06 0.07 0.07 0.08 0.12 0.46 0.24 0.07 0.14 0.08 0.67 0.44 0.28 0.07 0.05 0.05 0.03 0.07 0.08 0.06 0.10 0.17 0.13 0.09 0.11 0.09 0.12 0.04 0.05
0.16 0.15 0.20 0.13 0.22 0.09 0.22 0.39 0.44 0.26 0.21 0.19 0.13 0.12 0.10 0.07 0.06 0.04 0.06 0.12 0.14 0.08 0.04 0.05 0.05 0.05 0.04 0.05 0.05 0.06 0.10 0.09 0.06 0.10 0.09 0.07 0.08 0.14 0.09 0.10 0.11 0.07